Location: Bidart
(43.4376°N, 1.5913°W)
Time: 05:00:34
(UTC+00:00)

USA 229 DEB - Pass Details

Date: 19 April 2026
Orbit: 844 x 1364 km, 63.4° (Epoch: 10 January)

Event Time Altitude Azimuth Distance (km) Brightness Sun altitude
Rises 00:19:24 0° 324° (NW) 3,967 7.3 -35.4°
Reaches altitude 10° 00:22:04 10° 329° (NNW) 3,077 6.6 -35.3°
Maximum altitude 00:29:26 56° 47° (NE) 1,478 4.5 -35.2°
Enters shadow 00:31:13 47° 89° (E) 1,644 4.6 -35.1°
